Tracking 25707 objects as of 29-Jun-2022
HD Live streaming from Space Station
objects crossing your sky now

IUS DEB

Track IUS DEB now!
10-day predictions


NORAD ID: 43367
Int'l Code: 1999-040Q
Perigee: 744.3 km
Apogee: 9,567.1 km
Inclination: 28.2 °
Period: 205.3 minutes
Semi major axis: 11526 km
RCS: Unknown
Launch date: July 23, 1999
Source: United States (US)
Launch site: AIR FORCE EASTERN TEST RANGE (AFETR)

Note: This is SATELLITE DEBRIS
aabbcc
Your satellite tracking list
Your tracking list is empty




NASA's NSSDC Master Catalog

Two Line Element Set (TLE):
1 43367U 99040Q   22179.47140858 -.00000814  00000-0 -40122-2 0  9999
2 43367  28.1554 311.9600 3827096 358.7483   0.5323  7.01525842244831
Source of the keplerian elements: AFSPC